Location: ???????
(54.6339°N, 39.4245°E)
Time: 16:23:43
(UTC+00:00)

Geosat FO - Pass Details

Date: 19 May 2025
Orbit: 386 x 491 km, 108.0° (Epoch: 21 June)

Event Time Altitude Azimuth Distance (km) Brightness Sun altitude
Exits shadow 19:53:08 - 96° (E) 1,687 7.0 -13.2°
Reaches altitude 10° 19:53:52 10° 88° (E) 1,431 6.8 -13.2°
Drops below altitude 10° 19:58:16 10° 354° (N) 1,430 8.3 -13.4°
Enters shadow 20:52:12 -68° 146° (SSE) 12,377 11.6 -15.2°
Maximum altitude 21:27:23 56° 239° (WSW) 471 4.2 -15.4°
